sat.trackr.live / text

‹ back to catalog

STARLINK-37184

NORAD 68393 · 2026-063P

PAYLOAD ACTIVE UNKNOWN

§ Identity

Operator
Country
US
Launch date
2026-03-26
Launch site
AFWTR
Launch vehicle
Mass (kg)
RCS (m²)

Purposes: comms

External: N2YO · Heavens-Above · Gunter

§ Orbital elements

Epoch: 2026-05-25T00:00:02.000160Z

Period
93.90 min
Inclination
97.2847°
Eccentricity
0.0001466
Mean motion
15.33465815 rev/d
Perigee alt
464.5 km
Apogee alt
466.5 km
Semi-major
6,843.6 km
B*
-1.1196e-3
RAAN
287.5770°
Arg perigee
87.4949°
Mean anomaly
175.5210°
Rev number
601

§ Raw data

STARLINK-371841 68393U 26063P   26145.00002315 -.00036072  00000+0 -11196-2 0  99942 68393  97.2847 287.5770 0001466  87.4949 175.5210 15.33465815  6011

JSON: /api/v1/satellites/68393 · /tle

For live sub-satellite position, see the globe view (requires WebGL).

§ Visibility from observer

Set your observer location to see the next 7 days of passes ≥ 10°. The values pass through the URL so the page stays shareable.

No JS? Fill the form by hand. The geolocation button needs JavaScript.